Back to catalog

DELTA 1 DEB

AliveLEO
NORAD 10867·DEBRIS·🇺🇸 United States

Launched Jul 29, 1976 from Vandenberg Space Force Base

Loading…

Next Passes (next 24 hours)

TLE

FreshSource: Space-Track

Epoch: Sep 14, 2026, 13:09 UTC

1 10867U 76077CV  26257.54827420  .00000340  00000-0  88588-3 0  9990
2 10867 101.8367 272.0457 0415728  73.1348  73.4114 12.98570505328667

Track DELTA 1 DEB in real time with AllMySat

Download on the App Store